User: anonymous   Login
Location: Banff
(51.1667°N, 115.5667°W)
Time: 03:46:41
(UTC+00:00)
Language:

deb Explorer IX - Orbit

View from above orbital plane
View from above orbital plane
View from above satellite
View from above satellite

Ground track
Ground track

The orbit data is extracted from the following two-line orbital elements,

1 00085U 61004C   21208.79023085  .00004758  00000-0  10172-2 0  9998
2 00085  38.7683 111.0109 0383410 322.4793  34.9756 14.21948999988782
Epoch (UTC): 27 July 2021 18:57:55
Eccentricity: 0.0383410
inclination: 38.7683°
perigee height: 543 km
apogee height: 1095 km
right ascension of ascending node: 111.0109°
argument of perigee: 322.4793°
revolutions per day: 14.21948999
mean anomaly at epoch: 34.9756°
orbit number at epoch: 98878

The dashed part of the orbit path shows where the satellite is in the earth's shadow,  

DLR